Total_Precipitation_Accumulation
0.18 0.24 0.48 0.50 0.49 0.43 0.40 0.37 0.42 0.40 0.37 0.40 0.43 0.45 0.44 0.41 0.36 0.33 0.30 0.35 0.44 0.57 0.68 0.72 0.70 0.63 0.58 0.53 0.38 0.25 0.21 0.19 0.15 0.13 0.12 0.16 0.22 0.23 0.19 0.17 0.19 0.23 0.28
0.15 0.26 0.49 0.53 0.55 0.54 0.52 0.43 0.38 0.39 0.39 0.42 0.50 0.51 0.50 0.46 0.41 0.35 0.34 0.41 0.49 0.58 0.65 0.66 0.59 0.47 0.43 0.39 0.28 0.20 0.16 0.11 0.08 0.05 0.04 0.06 0.13 0.19 0.19 0.16 0.19 0.26 0.30
0.18 0.30 0.48 0.55 0.60 0.63 0.58 0.47 0.37 0.37 0.41 0.47 0.52 0.54 0.56 0.52 0.45 0.44 0.44 0.47 0.51 0.60 0.61 0.54 0.44 0.34 0.30 0.24 0.19 0.16 0.14 0.11 0.07 0.06 0.06 0.09 0.14 0.21 0.21 0.18 0.24 0.31 0.36
0.26 0.40 0.48 0.60 0.64 0.66 0.64 0.54 0.47 0.42 0.46 0.51 0.56 0.59 0.64 0.60 0.52 0.55 0.53 0.51 0.53 0.54 0.50 0.43 0.38 0.32 0.24 0.19 0.17 0.19 0.19 0.14 0.10 0.09 0.12 0.13 0.16 0.27 0.28 0.28 0.35 0.38 0.36
0.40 0.50 0.64 0.71 0.74 0.75 0.70 0.65 0.59 0.53 0.55 0.60 0.62 0.68 0.67 0.67 0.63 0.68 0.60 0.52 0.47 0.43 0.41 0.37 0.32 0.26 0.20 0.19 0.18 0.19 0.19 0.17 0.13 0.12 0.13 0.14 0.19 0.36 0.36 0.32 0.31 0.31 0.29
0.57 0.67 0.86 0.96 0.96 0.90 0.81 0.76 0.72 0.66 0.65 0.67 0.69 0.74 0.76 0.78 0.76 0.73 0.61 0.48 0.39 0.35 0.35 0.33 0.28 0.25 0.23 0.19 0.18 0.18 0.18 0.14 0.12 0.12 0.12 0.15 0.24 0.42 0.40 0.33 0.32 0.33 0.34
0.68 0.81 1.03 1.18 1.21 1.07 0.95 0.89 0.87 0.84 0.83 0.82 0.79 0.84 0.92 0.89 0.84 0.76 0.60 0.43 0.35 0.33 0.34 0.32 0.30 0.29 0.27 0.23 0.20 0.18 0.15 0.11 0.10 0.09 0.12 0.16 0.27 0.45 0.44 0.41 0.40 0.40 0.40
0.80 0.92 1.16 1.31 1.28 1.20 1.16 1.08 1.07 1.08 1.01 0.96 0.93 1.02 1.05 0.98 0.87 0.76 0.63 0.50 0.40 0.32 0.31 0.30 0.30 0.31 0.29 0.28 0.26 0.22 0.12 0.09 0.08 0.10 0.13 0.18 0.27 0.41 0.44 0.43 0.43 0.43 0.40
1.09 1.18 1.34 1.37 1.30 1.20 1.13 1.15 1.15 1.21 1.23 1.11 1.01 1.04 1.06 0.98 0.84 0.76 0.60 0.55 0.46 0.40 0.36 0.32 0.30 0.31 0.30 0.29 0.27 0.21 0.12 0.08 0.07 0.08 0.11 0.18 0.27 0.41 0.44 0.43 0.41 0.39 0.37
1.55 1.53 1.54 1.56 1.48 1.31 1.13 1.17 1.18 1.16 1.14 1.16 1.08 0.93 0.87 0.81 0.71 0.69 0.52 0.51 0.48 0.41 0.36 0.33 0.32 0.34 0.31 0.25 0.22 0.18 0.12 0.09 0.08 0.07 0.11 0.17 0.25 0.36 0.36 0.38 0.38 0.39 0.40
1.97 1.92 1.76 1.75 1.67 1.61 1.45 1.33 1.35 1.24 1.14 1.10 1.06 0.89 0.83 0.87 0.77 0.60 0.42 0.40 0.40 0.37 0.33 0.30 0.31 0.31 0.25 0.19 0.17 0.15 0.12 0.10 0.09 0.10 0.12 0.15 0.27 0.38 0.40 0.40 0.40 0.41 0.43
2.17 2.12 1.99 1.88 1.83 1.85 1.61 1.48 1.52 1.38 1.22 1.10 0.98 0.96 0.89 0.86 0.83 0.64 0.50 0.38 0.39 0.36 0.33 0.33 0.33 0.31 0.25 0.19 0.16 0.14 0.13 0.12 0.14 0.12 0.12 0.15 0.26 0.38 0.48 0.47 0.41 0.39 0.41
2.50 2.41 2.26 2.12 1.98 1.97 1.90 1.59 1.52 1.41 1.32 1.23 1.07 1.02 0.98 0.99 0.93 0.82 0.71 0.54 0.48 0.40 0.37 0.37 0.36 0.29 0.25 0.24 0.21 0.17 0.14 0.13 0.14 0.14 0.12 0.13 0.22 0.36 0.48 0.51 0.46 0.42 0.42
2.55 2.61 2.44 2.31 2.19 2.07 2.01 1.82 1.60 1.47 1.34 1.25 1.11 1.00 1.05 1.07 0.97 0.84 0.73 0.61 0.53 0.44 0.40 0.39 0.35 0.29 0.25 0.23 0.21 0.20 0.18 0.17 0.15 0.16 0.14 0.13 0.19 0.31 0.43 0.50 0.52 0.51 0.49
2.43 2.64 2.61 2.48 2.33 2.16 2.09 2.01 1.77 1.51 1.33 1.31 1.30 1.18 1.02 0.96 0.89 0.83 0.71 0.68 0.59 0.51 0.47 0.44 0.38 0.33 0.30 0.27 0.21 0.19 0.19 0.18 0.16 0.16 0.14 0.12 0.14 0.23 0.34 0.45 0.55 0.63 0.68
2.29 2.51 2.64 2.70 2.56 2.33 2.11 1.99 1.89 1.70 1.51 1.46 1.43 1.35 1.23 1.09 0.97 0.85 0.73 0.70 0.65 0.56 0.49 0.48 0.44 0.41 0.38 0.32 0.26 0.22 0.18 0.19 0.17 0.15 0.14 0.13 0.14 0.18 0.25 0.34 0.47 0.65 0.77
2.37 2.43 2.59 2.72 2.77 2.59 2.37 2.15 2.02 1.87 1.69 1.57 1.51 1.54 1.45 1.30 1.14 1.05 0.89 0.75 0.68 0.68 0.64 0.58 0.56 0.47 0.38 0.33 0.27 0.24 0.22 0.22 0.21 0.18 0.16 0.15 0.17 0.18 0.21 0.29 0.41 0.57 0.72
2.67 2.62 2.70 2.69 2.79 2.78 2.63 2.38 2.14 2.01 1.83 1.60 1.43 1.46 1.52 1.42 1.29 1.22 1.15 1.00 0.87 0.83 0.80 0.68 0.58 0.55 0.43 0.35 0.30 0.27 0.24 0.23 0.22 0.21 0.20 0.16 0.15 0.17 0.20 0.25 0.32 0.44 0.57
2.80 2.85 2.94 2.90 2.74 2.77 2.83 2.67 2.36 2.08 1.88 1.72 1.50 1.38 1.43 1.48 1.37 1.24 1.13 1.13 1.13 1.03 0.90 0.79 0.65 0.64 0.57 0.44 0.38 0.33 0.28 0.24 0.22 0.22 0.22 0.21 0.18 0.16 0.17 0.20 0.25 0.30 0.40
2.80 2.82 2.87 2.96 2.99 2.98 2.99 2.98 2.70 2.34 2.02 1.83 1.69 1.54 1.48 1.51 1.49 1.40 1.25 1.18 1.20 1.19 1.10 0.98 0.84 0.73 0.67 0.62 0.53 0.41 0.34 0.28 0.24 0.23 0.22 0.21 0.20 0.19 0.18 0.19 0.21 0.23 0.27
2.63 2.70 2.67 2.71 2.86 2.98 3.01 2.93 2.74 2.43 2.23 1.99 1.82 1.74 1.65 1.58 1.57 1.58 1.45 1.37 1.36 1.33 1.28 1.24 1.16 1.01 0.83 0.79 0.73 0.55 0.40 0.32 0.28 0.24 0.24 0.25 0.23 0.24 0.24 0.24 0.25 0.26 0.29
2.20 2.54 2.56 2.60 2.64 2.69 2.70 2.82 2.86 2.73 2.48 2.25 2.04 1.86 1.73 1.60 1.55 1.58 1.60 1.52 1.42 1.41 1.40 1.36 1.28 1.16 1.03 0.95 0.88 0.82 0.63 0.45 0.33 0.28 0.27 0.27 0.27 0.28 0.28 0.30 0.32 0.33 0.34
1.92 2.31 2.48 2.57 2.64 2.59 2.69 3.00 3.14 3.08 2.75 2.48 2.23 1.98 1.80 1.71 1.65 1.55 1.49 1.51 1.47 1.46 1.44 1.42 1.43 1.44 1.33 1.20 1.08 1.11 0.94 0.68 0.49 0.37 0.31 0.31 0.33 0.35 0.34 0.35 0.37 0.40 0.41
1.66 1.95 2.18 2.47 2.65 2.71 2.76 2.90 2.89 2.70 2.47 2.23 2.16 2.07 1.95 1.84 1.71 1.65 1.59 1.52 1.50 1.48 1.44 1.47 1.50 1.51 1.55 1.44 1.31 1.21 1.11 0.92 0.84 0.64 0.47 0.43 0.45 0.46 0.46 0.44 0.42 0.43 0.45
1.45 1.72 1.84 2.06 2.31 2.46 2.55 2.73 2.82 2.62 2.36 2.19 2.13 2.06 1.97 1.92 1.79 1.67 1.60 1.58 1.55 1.51 1.48 1.48 1.53 1.54 1.57 1.57 1.49 1.38 1.31 1.14 0.98 0.91 0.72 0.58 0.56 0.53 0.53 0.52 0.49 0.47 0.47
1.23 1.53 1.68 1.84 2.01 2.20 2.27 2.46 2.67 2.53 2.28 2.03 1.94 1.91 1.83 1.79 1.71 1.58 1.53 1.50 1.47 1.43 1.41 1.38 1.43 1.48 1.50 1.48 1.44 1.36 1.34 1.27 1.12 1.09 0.99 0.79 0.74 0.67 0.66 0.66 0.63 0.58 0.55